RH
100 100 100 92 81 88 100 100 98 61 37 25 41 86 77 64 43 28 27 26 24 24 26 33 35 44 62 54 50 62 85 72 63 53 40 30 30 30 31 33 34 31 28 22 22 24 28 33 33
92 100 100 93 62 85 100 100 100 74 44 30 27 49 81 58 34 26 23 24 26 24 28 42 51 52 50 48 58 62 66 59 51 36 30 29 27 25 27 30 28 24 23 24 26 29 34 38 38
71 95 97 93 63 88 95 100 100 83 52 36 26 34 67 57 32 24 24 24 28 24 24 29 43 55 54 56 49 43 47 45 33 25 24 26 28 31 30 27 25 27 29 30 29 30 34 41 44
57 63 72 80 72 89 81 100 100 84 54 39 28 31 54 49 27 31 25 27 31 25 23 26 32 42 46 43 39 38 33 25 24 26 29 31 33 31 30 29 30 31 32 31 30 31 34 40 42
65 67 62 57 93 88 89 100 100 98 57 41 25 27 48 49 32 36 26 27 30 30 25 24 28 32 33 34 33 28 25 26 27 28 31 32 33 32 32 32 31 31 32 30 30 30 34 38 41
54 62 71 51 94 68 80 100 100 100 78 72 36 34 59 59 42 38 26 28 27 29 31 27 23 24 26 27 26 26 27 26 28 31 32 31 31 31 30 29 28 29 29 29 30 33 35 38 44
44 69 74 55 65 68 73 92 100 100 92 84 59 48 67 56 63 61 38 31 32 31 33 33 29 25 24 23 23 24 25 28 29 29 31 32 31 28 29 31 33 33 33 32 35 43 46 49 51
25 74 78 64 61 59 89 90 96 100 100 93 84 58 77 70 55 66 39 41 37 40 38 35 38 32 30 27 27 29 31 29 29 30 31 37 40 44 44 44 49 48 46 48 54 54 53 46 42
16 45 76 61 59 46 87 94 91 100 100 100 88 78 72 71 46 48 47 39 40 38 45 43 42 42 40 40 40 38 39 39 36 38 40 41 43 49 60 65 57 55 49 46 45 43 42 40 40
14 29 85 85 99 87 82 97 99 100 100 100 100 93 83 75 56 49 52 38 42 41 42 46 47 51 51 52 51 50 47 46 45 46 46 44 42 47 54 52 47 44 41 41 41 44 48 55 73
15 20 89 84 100 100 66 73 100 100 100 100 100 100 90 82 63 55 48 48 45 46 46 48 51 53 52 52 55 53 48 43 43 47 44 41 40 43 47 48 44 40 39 42 46 46 58 76 76
16 17 47 73 78 100 100 74 83 100 100 100 100 100 100 84 73 58 44 47 44 45 50 55 60 60 59 57 57 54 51 49 48 50 48 52 52 50 49 47 42 44 51 55 58 73 86 83 94
17 17 37 82 64 100 100 100 66 94 100 100 100 100 100 95 88 71 65 69 69 60 57 58 56 54 57 59 59 58 55 52 53 52 51 52 57 60 57 56 56 56 59 67 81 89 91 97 87
17 18 24 80 80 100 100 100 82 98 100 100 100 100 100 100 97 92 90 89 85 78 68 61 56 56 59 59 60 66 66 72 73 69 79 76 69 60 57 59 65 71 75 85 90 100 100 92 86
15 20 18 81 82 100 100 95 88 88 100 100 100 100 100 100 99 90 86 90 96 90 80 68 58 58 64 71 72 74 71 74 89 86 74 63 64 62 63 71 74 76 92 100 100 100 96 91 88
14 19 18 63 94 96 100 97 84 87 97 100 100 100 98 100 100 100 89 86 83 86 89 89 75 71 65 69 86 95 95 96 86 71 71 69 71 72 79 84 90 100 100 100 98 100 92 87 78
12 17 18 38 97 95 100 100 100 71 92 100 100 100 100 100 100 100 98 81 77 72 71 74 68 68 63 60 63 70 73 72 75 78 79 83 87 92 100 100 100 100 100 100 100 99 91 85 75
14 17 21 30 86 95 100 100 100 92 69 99 100 100 100 100 100 100 100 100 93 82 78 79 84 78 70 67 68 70 76 79 84 94 99 100 100 100 100 100 100 100 100 100 96 97 93 83 83
14 16 29 26 51 62 100 94 100 100 78 60 90 100 100 100 100 100 100 100 100 100 100 96 88 86 85 83 90 100 100 100 100 100 100 100 100 100 100 100 100 100 100 100 100 96 89 93 81
14 15 19 28 48 44 72 83 100 100 99 68 54 82 96 97 97 100 100 100 100 100 100 100 100 100 100 100 100 100 100 100 100 100 100 100 100 100 100 100 100 100 100 99 91 89 84 85 77
15 14 17 24 32 74 45 43 97 100 100 83 72 63 76 91 96 98 100 100 100 100 100 100 100 100 100 100 100 100 100 100 100 100 100 100 100 100 100 100 100 96 96 98 95 84 83 82 81
16 14 15 19 30 96 70 49 81 100 100 84 73 72 69 74 87 92 99 100 100 100 100 100 100 100 100 94 100 100 100 100 100 100 100 100 100 100 100 96 100 97 90 92 86 84 84 75 79
17 14 15 18 26 47 76 60 77 91 100 100 79 61 68 67 68 85 90 96 100 100 100 100 100 100 100 100 100 100 100 100 100 100 100 98 96 92 100 95 88 88 81 80 85 93 85 84 84
17 16 14 16 18 34 43 49 89 65 98 97 77 59 53 61 71 69 81 88 100 100 100 100 100 100 100 100 100 100 100 100 100 100 100 100 100 100 96 91 84 80 88 86 85 79 83 78 78
20 18 15 14 16 21 35 31 94 77 88 86 80 58 54 59 68 77 85 90 83 92 100 100 100 100 100 100 100 100 100 100 100 100 100 98 99 99 99 99 98 93 88 86 86 85 88 80 72
24 23 18 15 15 19 27 28 97 66 58 73 74 66 39 42 56 74 87 86 96 100 100 100 100 100 100 100 100 100 100 100 100 100 94 97 100 98 100 95 97 93 91 98 88 88 75 69 56
24 22 21 17 15 15 18 29 74 97 66 75 68 58 63 38 31 45 64 79 84 88 90 94 99 100 100 100 100 100 100 100 100 100 100 100 97 100 100 100 100 97 93 90 86 77 65 52 40
21 26 24 21 18 16 16 18 24 58 82 82 68 64 43 33 27 23 34 54 74 88 93 94 96 100 100 100 100 100 100 100 100 100 100 100 100 100 100 100 100 97 95 92 81 61 48 37 39
29 25 26 27 23 21 18 17 18 29 36 35 58 65 52 37 25 18 20 28 41 58 70 81 87 93 100 100 100 100 100 100 100 100 100 100 100 100 100 98 90 96 82 71 54 41 37 42 55
31 30 22 21 26 27 27 24 22 22 47 51 35 41 42 45 30 28 27 28 28 32 38 48 62 74 86 92 100 100 100 100 100 100 100 100 99 100 93 94 88 79 62 43 36 44 54 66 59
Wind_Speed
97 92 88 83 78 69 67 66 66 62 60 53 50 45 44 41 41 42 42 40 36 33 34 35 39 41 39 36 34 32 30 28 27 28 27 26 24 22 20 21 21 22 23 23 25 27 30 32 35
99 95 92 88 80 75 70 71 68 65 63 56 52 49 45 45 44 46 43 39 33 32 33 34 35 37 37 35 33 30 30 29 29 28 26 25 23 22 22 22 23 23 24 25 28 30 32 34 37
104 98 94 89 83 77 79 74 71 71 65 61 53 50 47 48 48 47 45 40 35 34 33 34 34 34 35 35 33 30 30 30 29 27 26 25 24 24 24 24 24 26 27 29 32 33 36 38 42
108 103 97 90 85 86 84 78 72 74 69 63 57 53 49 50 50 47 46 42 37 37 33 32 33 34 34 34 34 31 30 29 29 28 27 26 26 26 27 27 28 29 31 33 35 38 40 42 46
113 107 99 92 89 90 86 79 74 74 72 65 58 54 52 53 51 50 49 42 37 37 34 32 33 34 35 36 35 33 31 28 27 27 28 28 29 30 30 31 32 33 35 37 40 42 44 48 51
116 112 101 95 95 96 90 81 77 75 75 68 62 57 53 56 55 53 51 47 43 41 37 35 35 35 36 35 33 32 30 28 28 29 30 31 32 33 33 35 36 37 39 42 44 46 49 52 55
112 111 104 100 98 101 93 88 79 76 74 70 67 63 58 59 58 55 54 52 47 43 40 38 37 36 36 36 34 33 32 31 32 32 34 35 35 35 36 38 40 42 44 47 49 52 54 57 60
115 113 109 101 102 101 96 91 84 77 74 73 71 65 63 64 63 58 56 54 50 45 42 40 38 38 37 36 35 35 34 35 36 36 37 37 36 37 40 42 45 46 49 52 54 57 60 62 65
117 115 109 103 105 101 97 94 86 83 77 74 73 71 67 65 64 62 58 56 53 49 45 43 41 40 38 38 38 39 39 40 39 39 40 40 40 42 42 44 47 50 52 55 58 61 64 67 70
114 114 109 105 105 104 101 95 91 87 81 78 76 75 70 68 66 66 62 59 55 53 49 46 44 43 42 41 42 42 41 41 42 42 44 44 45 46 47 48 51 54 57 60 62 65 69 72 75
120 114 113 113 110 107 103 98 96 92 86 82 79 78 74 70 69 68 66 62 59 56 53 51 49 49 47 47 47 46 45 44 44 45 47 48 48 49 52 54 56 59 62 65 68 72 73 75 74
115 113 113 115 110 107 104 103 99 95 89 85 81 72 77 72 70 70 68 64 62 59 57 56 54 52 51 50 50 49 48 47 47 48 49 50 52 54 56 59 62 65 67 70 73 74 76 74 70
117 115 116 117 113 109 107 105 99 99 94 89 84 80 73 77 71 70 68 67 65 63 62 60 59 56 54 54 53 53 52 52 53 53 54 55 57 59 61 63 66 68 72 74 76 75 71 70 71
114 115 117 117 114 112 110 109 104 99 98 92 86 83 82 80 75 72 71 68 68 66 66 63 62 60 60 59 58 57 55 54 56 56 57 60 62 64 66 69 71 73 75 75 75 68 68 71 74
112 118 118 118 116 115 115 112 106 102 100 96 89 86 84 83 80 77 72 69 70 69 65 66 67 65 63 62 60 59 61 60 60 61 63 65 66 68 71 73 75 75 73 72 69 69 72 75 75
111 118 117 116 120 118 118 113 107 109 98 97 95 91 88 82 81 81 77 73 69 68 66 66 66 67 66 65 62 61 61 61 64 66 68 68 70 73 75 75 74 72 71 70 70 72 76 77 81
108 113 113 117 121 120 116 115 113 110 104 101 97 94 92 88 80 81 79 76 74 73 71 71 71 71 70 68 68 69 68 70 70 70 71 73 73 72 72 69 71 70 70 70 74 75 79 83 86
97 105 112 115 120 121 119 115 113 113 112 108 104 102 95 90 86 79 75 76 76 76 75 74 75 74 73 72 71 72 73 73 71 71 72 71 68 67 67 69 69 70 71 74 77 80 84 86 90
98 106 110 114 119 119 123 119 113 116 117 115 111 105 99 93 88 83 77 77 80 79 78 75 74 74 74 73 72 71 70 70 70 70 69 68 69 70 71 71 72 73 75 77 81 85 87 90 93
95 101 109 116 117 119 124 122 119 118 118 118 115 110 106 100 94 89 82 79 78 77 78 76 75 73 71 70 69 69 70 70 70 70 71 72 73 73 73 73 76 79 81 85 89 90 92 94 97
92 97 106 113 116 118 121 120 121 117 122 118 114 113 108 103 97 93 88 84 82 81 79 77 75 73 72 71 72 72 72 72 72 73 73 74 74 74 76 80 83 86 88 90 92 95 97 98 100
87 92 100 110 114 118 122 116 117 122 122 121 117 113 111 108 104 99 96 91 88 87 86 83 81 80 79 78 76 75 75 76 77 78 78 79 80 82 85 87 87 90 92 93 95 98 99 103 105
83 89 95 105 111 115 120 119 118 122 122 121 120 116 113 109 107 104 100 97 95 93 91 89 86 83 82 82 81 79 80 79 79 82 84 85 87 89 89 90 94 94 96 95 96 98 102 105 107
80 85 92 98 106 113 119 120 119 120 119 123 123 118 114 111 109 107 106 104 102 100 98 95 92 90 87 86 86 86 86 85 85 85 86 88 89 92 93 95 98 99 97 98 100 102 106 108 110
72 79 85 93 99 107 118 119 118 122 120 121 122 121 116 113 109 109 110 109 108 106 104 101 100 97 95 93 92 92 90 89 89 88 88 90 91 93 95 96 98 101 102 104 105 108 110 112 114
66 74 80 87 95 100 113 114 114 121 119 120 120 119 115 113 113 112 111 110 110 108 108 105 103 102 100 98 97 95 96 94 93 94 95 96 96 97 98 100 102 105 106 108 110 111 114 115 114
59 64 73 81 88 96 101 110 115 118 118 119 119 118 118 115 112 111 111 110 110 110 108 108 108 106 104 102 101 100 98 98 98 98 99 100 100 100 102 103 105 107 109 110 111 114 112 110 102
53 58 63 72 81 88 94 102 109 116 121 120 118 119 118 116 113 110 109 109 110 109 109 108 106 105 105 105 104 102 101 100 100 100 101 101 102 103 103 105 106 108 109 110 112 109 107 99 94
51 53 57 67 71 75 82 90 98 105 110 115 117 121 120 116 112 106 105 105 107 108 108 108 107 105 105 104 103 103 102 102 101 102 102 104 105 105 106 108 108 108 110 108 106 100 94 92 95
52 55 60 61 62 70 74 77 88 96 103 108 110 113 116 117 112 108 105 104 103 103 102 103 104 104 105 103 103 103 104 104 104 105 105 106 107 104 106 107 106 104 103 99 95 92 91 96 101
Wind_Direction
225 223 223 224 226 224 227 229 230 231 232 227 224 224 226 222 224 224 223 227 227 227 233 232 227 226 228 231 234 236 239 241 243 248 253 256 255 261 266 271 276 281 285 290 296 300 302 303 305
224 222 224 222 225 221 224 229 229 230 231 228 224 220 221 222 220 225 225 228 231 230 231 228 224 225 228 229 230 232 236 240 246 248 251 254 256 261 267 273 277 281 286 290 295 296 298 301 304
222 222 221 220 222 220 223 226 227 227 228 228 223 224 219 220 220 223 227 227 227 228 228 229 228 227 228 229 233 234 236 241 244 246 250 252 257 262 266 270 275 280 284 288 289 293 295 300 302
221 221 221 220 219 220 221 223 224 225 227 226 223 222 222 220 220 223 227 228 225 227 226 228 227 227 228 231 232 234 236 239 242 247 251 256 259 264 269 274 278 281 285 288 291 294 298 299 301
222 221 221 219 217 220 220 221 222 225 226 226 224 223 222 222 220 224 226 225 224 227 226 227 227 227 227 228 230 230 234 242 250 253 258 262 265 267 271 276 277 280 286 290 293 295 296 297 299
222 222 219 218 218 221 219 219 223 224 224 227 224 225 225 224 221 225 226 226 225 230 226 226 225 226 227 228 232 236 242 248 251 255 259 262 265 269 274 279 282 287 289 292 293 294 295 296 297
220 222 218 218 217 220 219 219 221 224 225 227 228 226 225 228 224 224 228 229 227 229 228 227 228 229 230 234 238 242 247 251 254 256 260 264 267 272 277 282 285 286 289 291 294 295 295 297 299
218 218 218 217 218 220 218 219 220 223 226 228 228 227 225 227 224 225 225 231 232 228 230 229 232 233 236 238 243 247 251 253 256 260 263 266 269 274 278 283 287 290 292 293 295 295 297 298 300
215 217 216 217 220 220 219 219 220 222 224 227 230 231 227 228 228 225 226 229 233 233 232 233 234 238 242 245 249 251 254 257 260 263 265 267 271 275 279 284 288 291 291 292 293 297 299 301 302
214 215 215 216 217 220 219 218 218 221 223 225 227 231 230 228 228 229 225 228 231 235 236 235 238 240 242 244 248 251 254 258 262 266 269 270 272 275 279 282 287 288 290 292 297 300 301 303 305
212 213 213 214 215 217 219 218 217 218 220 223 225 228 229 229 231 229 228 227 232 233 236 238 240 242 244 248 251 254 257 259 263 267 270 272 276 280 282 283 285 288 292 295 296 298 300 303 304
211 212 212 215 214 217 218 219 217 218 219 221 223 225 230 229 230 234 232 228 231 234 237 239 241 242 245 249 253 257 260 262 266 270 274 278 281 282 283 285 287 290 294 296 299 300 302 301 301
211 210 212 214 215 215 217 218 218 219 219 221 222 225 226 227 228 231 233 235 235 237 239 240 242 245 249 252 255 260 264 267 269 271 275 277 280 283 285 288 290 293 295 297 298 300 299 300 302
211 211 212 213 215 215 218 218 218 219 221 221 221 224 225 226 225 227 230 232 234 237 240 244 246 246 250 253 256 259 262 266 268 271 275 279 281 284 287 289 292 295 296 296 297 296 298 303 303
210 210 211 212 214 216 218 220 218 219 221 222 220 222 226 229 229 227 228 230 234 236 239 241 245 249 250 254 257 260 262 264 268 271 275 278 281 284 287 290 292 294 293 293 293 296 300 302 303
210 210 211 212 214 216 218 221 220 219 219 223 221 223 224 227 230 230 229 229 233 236 239 244 246 250 251 254 257 260 263 265 269 273 276 280 281 284 287 290 291 289 289 291 295 296 299 300 301
212 210 211 212 216 216 219 219 222 221 218 223 223 224 225 225 229 232 233 235 235 239 242 244 248 251 254 257 259 262 265 269 271 274 277 278 282 285 287 285 286 288 293 293 295 296 298 300 303
213 211 212 213 216 217 219 220 222 225 222 222 224 224 224 226 228 231 237 239 239 240 241 242 245 249 253 257 260 263 266 268 272 275 278 281 281 281 281 284 287 290 292 292 294 296 298 300 302
210 210 212 213 218 218 220 220 222 225 226 223 225 226 228 227 230 232 234 236 238 240 241 242 245 249 252 256 260 265 269 270 272 275 277 278 279 281 283 284 287 288 289 292 293 295 298 300 301
211 212 211 213 215 219 221 220 222 226 228 228 226 228 229 230 229 230 233 234 238 242 244 245 247 249 252 256 259 261 264 267 270 272 274 276 278 280 281 283 284 287 290 291 293 295 297 299 300
212 211 212 215 215 218 223 222 224 226 230 228 229 229 230 231 232 233 233 235 237 239 242 245 246 249 253 255 258 261 264 267 269 271 273 276 278 280 281 282 285 287 289 291 293 295 297 299 301
213 213 214 215 215 216 223 224 224 226 230 231 228 229 230 231 233 234 234 234 237 240 242 245 248 252 255 257 258 260 262 264 266 268 270 272 273 276 278 280 283 285 288 290 293 295 298 298 301
215 215 215 216 217 217 224 224 226 228 230 234 233 230 230 232 234 236 237 238 238 240 243 246 250 252 255 257 258 259 262 265 268 270 272 274 275 277 279 281 283 285 288 290 293 296 297 299 302
217 217 216 218 219 219 222 225 227 230 232 233 236 234 232 232 235 236 237 238 240 241 243 246 250 252 255 258 260 262 264 266 268 269 272 275 277 279 282 284 286 288 290 291 293 294 297 299 302
219 220 220 220 221 220 224 226 225 230 232 235 237 238 237 234 235 237 239 240 241 243 245 247 250 252 255 258 260 263 265 267 268 271 273 276 278 280 283 285 287 288 290 292 294 296 299 300 302
219 221 221 221 222 222 224 228 227 231 233 236 238 241 241 238 238 237 238 240 242 244 245 248 250 253 256 259 262 264 266 268 269 271 273 276 278 280 283 284 287 289 291 292 294 296 298 301 302
222 223 222 223 225 226 226 228 228 232 236 237 240 241 243 244 242 241 241 242 244 245 247 249 251 254 257 260 262 264 266 268 271 272 274 276 279 280 283 285 287 289 291 293 295 297 300 301 302
225 225 224 225 226 227 227 229 230 230 235 238 241 243 244 245 246 246 245 244 246 247 249 250 253 255 258 260 262 264 267 268 271 272 273 276 279 281 284 286 287 289 291 292 296 298 300 300 302
226 226 225 225 225 228 230 231 234 235 235 238 239 243 245 248 249 249 249 249 250 251 252 254 255 256 258 260 263 265 268 270 271 273 275 277 280 282 284 286 288 289 292 294 296 298 299 300 303
225 226 224 222 222 224 227 230 233 234 235 239 241 242 244 247 250 252 253 253 253 254 255 256 256 258 259 262 263 266 267 270 271 274 277 277 281 282 283 287 288 291 293 295 297 298 301 302 303